[[{"header":{"parameterUnit":"m.s-1","parameterCategory":1,"la1":30.2991,"la2":30.254,"lo1":-89.0895,"lo2":-89.0444,"dy":0.0017,"dx":0.0017,"nx":28,"ny":28,"refTime":"2023-10-08T21:00:00:Z","depth":0,"parameterNumber":2,"parameterNumberName":"U-component_of_WINDS"},"data":[0,0,0,0,0,0,0,0,0,0,0,0,0,0,0,0,0,0,0,0,0,0,0,0,0,0,0,0,0,0,0,0,0,0,0,0,0,0,0,0,0,0,0,0,0,0,0,0,0,0,0,0,0,0,0,0,0,0,0.5984,0.5985,0,0.6025,0.6026,0.6026,0.6052,0.6052,0.6052,0.6052,0.6093,0.6094,0.6095,0,0,0,0,0,0,0,0,0,0,0,0,0,0.5927,0.5928,0.5984,0.5985,0.5985,0.6025,0.6026,0.6026,0.6051,0.6052,0.6052,0.6052,0.6093,0.6094,0.6095,0,0,0,0,0,0,0,0,0,0,0,0,0,0.5958,0.5928,0.5984,0.6003,0.6005,0.6025,0.6026,0.6026,0.6051,0.6052,0.6052,0.6052,0.6092,0.6094,0.6095,0.61,0,0,0.61,0.61,0,0,0,0,0,0,0,0,0.5957,0.596,0.6,0.6002,0.6004,0.6033,0.6021,0.6051,0.6051,0.6034,0.6052,0.6052,0.6073,0.6076,0.6083,0.6102,0.6104,0.61,0.6101,0.6101,0.6102,0,0,0,0,0,0,0,0.5954,0.5959,0.6,0.6,0.6003,0.6009,0.6013,0.6026,0.6052,0.6035,0.6037,0.6042,0.6074,0.6082,0.6084,0.6104,0.61,0.6101,0.6102,0.6102,0.6128,0.6128,0,0,0,0,0,0,0.5949,0.5957,0.5999,0.6002,0.598,0.601,0.6015,0.6024,0.6052,0.6056,0.6042,0.6043,0.6079,0.6083,0.6086,0.6093,0.6101,0.6103,0.6103,0.6128,0.6128,0.6128,0,0,0,0,0,0,0.5948,0.5953,0.5998,0.598,0.5986,0.601,0.602,0.6024,0.6032,0.6056,0.6061,0.6045,0.6079,0.6084,0.6096,0.6095,0.6103,0.6105,0.6128,0.6128,0.6128,0.6107,0,0,0,0,0,0,0.5946,0.5952,0.5955,0.598,0.5987,0.6007,0.602,0.6025,0.6035,0.6037,0.606,0.6065,0.608,0.6094,0.6097,0.6097,0.6106,0.6128,0.6128,0.6128,0.6108,0.6106,0.6104,0,0,0,0,0,0.5944,0.5947,0.5955,0.596,0.599,0.6007,0.6011,0.6029,0.6034,0.6037,0.6052,0.6064,0.6094,0.6095,0.6099,0.6099,0.6129,0.6128,0.6128,0.6109,0.6106,0.6104,0,0,0,0,0,0,0.5921,0.5951,0.5959,0.597,0.5986,0.6011,0.6015,0.6026,0.604,0.6042,0.6063,0.6068,0.6078,0.609,0.609,0.6105,0.6113,0.6113,0.6097,0.6095,0.6093,0.609,0.6107,0,0,0,0,0,0.5917,0.5929,0.5954,0.5961,0.5969,0.599,0.5998,0.6011,0.6028,0.6034,0.6051,0.6067,0.608,0.6088,0.6101,0.611,0.6115,0.6111,0.611,0.6108,0.6108,0.6113,0.6111,0.6126,0.6126,0.6126,0,0,0.5909,0.5927,0.5933,0.5957,0.5971,0.5982,0.5996,0.6007,0.6015,0.6036,0.6049,0.6061,0.608,0.609,0.6095,0.61,0.6105,0.6108,0.6106,0.6107,0.6112,0.6111,0.611,0.6126,0.6126,0.6126,0,0,0.5901,0.5915,0.5923,0.5936,0.5957,0.5971,0.5973,0.5996,0.6006,0.6018,0.6034,0.6044,0.6066,0.6079,0.6088,0.6084,0.6095,0.6088,0.6078,0.6083,0.6082,0.6081,0.6079,0.6078,0.6088,0.6088,0.6088,0,0.5888,0.5906,0.5925,0.5936,0.5946,0.5965,0.5973,0.5984,0.6008,0.6014,0.6019,0.6047,0.6061,0.6074,0.6073,0.608,0.6082,0.6085,0.608,0.608,0.6079,0.6077,0.6076,0.6087,0.6087,0.6087,0.6087,0,0.589,0.5902,0.5905,0.5928,0.5938,0.5947,0.5967,0.5975,0.5986,0.6,0.6013,0.603,0.6047,0.6051,0.6062,0.6066,0.6068,0.6076,0.6085,0.6076,0.6075,0.6074,0.6085,0.6085,0.6086,0.6086,0,0,0.5868,0.5901,0.5902,0.5912,0.5936,0.5945,0.5954,0.5971,0.5978,0.5993,0.6001,0.6019,0.6027,0.6037,0.605,0.6054,0.6049,0.6062,0.6063,0.6058,0.6053,0.6046,0.6045,0.6056,0.6056,0.6056,0.6051,0,0.5862,0.5881,0.5898,0.591,0.5921,0.594,0.5948,0.5963,0.5976,0.5987,0.6001,0.6013,0.6023,0.6029,0.6034,0.6048,0.6048,0.6049,0.6064,0.6064,0.6058,0.6045,0.6038,0.6032,0.6051,0.6051,0.6051,0,0.5859,0.5874,0.5887,0.5909,0.5914,0.5921,0.5938,0.5948,0.5966,0.5975,0.5986,0.6,0.601,0.6017,0.6031,0.6032,0.6039,0.6047,0.6047,0.6049,0.6057,0.6046,0.6031,0.603,0.605,0.605,0.605,0,0.5841,0.5864,0.5875,0.5883,0.591,0.5914,0.5925,0.5943,0.5952,0.5966,0.5972,0.5987,0.5995,0.6006,0.6023,0.6027,0.6035,0.6044,0.6043,0.6042,0.6043,0.6043,0.6029,0.6048,0.6048,0.6048,0.6048,0,0.5833,0.584,0.5867,0.5874,0.5882,0.5902,0.591,0.5922,0.5938,0.5947,0.5963,0.5971,0.5993,0.6003,0.6017,0.6026,0.603,0.6037,0.604,0.6035,0.6034,0.604,0.604,0.6048,0.6048,0.6048,0.6048,0,0.5814,0.5833,0.5846,0.587,0.5876,0.5881,0.5901,0.5908,0.5922,0.5933,0.5937,0.5958,0.5971,0.5989,0.6007,0.6016,0.6023,0.6029,0.6018,0.602,0.6017,0.6016,0.6006,0.6005,0.6025,0.6024,0.6024,0,0.5808,0.5814,0.5839,0.5846,0.5857,0.5868,0.5878,0.5897,0.5906,0.5926,0.593,0.5944,0.5957,0.5976,0.5993,0.6007,0.6013,0.6008,0.6015,0.601,0.6012,0.6012,0.6012,0.6006,0.6006,0.6006,0.6006,0,0.5794,0.5803,0.5816,0.5832,0.5843,0.5856,0.587,0.5875,0.5897,0.5906,0.592,0.5929,0.5948,0.5962,0.5978,0.5989,0.6001,0.6003,0.6004,0.5998,0.5991,0.5995,0.6013,0.6003,0.6004,0.6004,0.6004,0.6004,0.5781,0.5788,0.5806,0.5819,0.5832,0.5845,0.5852,0.5867,0.5879,0.5896,0.5907,0.592,0.5936,0.5959,0.5969,0.5979,0.5984,0.5985,0.5985,0.5984,0.5982,0.599,0.5982,0.5983,0.5983,0.5983,0.5983,0,0.5768,0.5781,0.5794,0.5813,0.5823,0.5834,0.585,0.5858,0.5869,0.5884,0.5896,0.5911,0.5925,0.5942,0.5957,0.5961,0.5967,0.5964,0.5964,0.5966,0.5978,0.5976,0.5959,0.5959,0.5959,0.5959,0.5959,0.5959,0.5763,0.5774,0.5784,0.5801,0.5814,0.5827,0.5835,0.5847,0.5859,0.5875,0.5886,0.5898,0.5914,0.5929,0.5942,0.5947,0.5951,0.5946,0.5953,0.5963,0.5965,0.5967,0.5966,0.5947,0.5947,0.594,0.594,0.594]},{"header":{"parameterUnit":"m.s-1","parameterCategory":1,"la1":30.2991,"la2":30.254,"lo1":-89.0895,"lo2":-89.0444,"dy":0.0017,"dx":0.0017,"nx":28,"ny":28,"refTime":"2023-10-08T21:00:00:Z","depth":0,"parameterNumber":3,"parameterNumberName":"V-component_of_WINDS"},"data":[0,0,0,0,0,0,0,0,0,0,0,0,0,0,0,0,0,0,0,0,0,0,0,0,0,0,0,0,0,0,0,0,0,0,0,0,0,0,0,0,0,0,0,0,0,0,0,0,0,0,0,0,0,0,0,0,0,0,3.0231,3.0231,0,3.0181,3.0181,3.018,3.0192,3.0193,3.0194,3.0195,3.0137,3.0135,3.0133,0,0,0,0,0,0,0,0,0,0,0,0,0,3.0331,3.0329,3.0231,3.0231,3.023,3.0182,3.0181,3.018,3.0192,3.0194,3.0195,3.0196,3.0138,3.0135,3.0132,0,0,0,0,0,0,0,0,0,0,0,0,0,3.0285,3.0329,3.0232,3.0231,3.023,3.0182,3.0181,3.018,3.0192,3.0194,3.0195,3.0196,3.0139,3.0136,3.0132,3.0079,0,0,3.0121,3.0119,0,0,0,0,0,0,0,0,3.0288,3.0281,3.0231,3.0231,3.023,3.0195,3.0195,3.0146,3.0192,3.0206,3.0195,3.0197,3.0155,3.015,3.0137,3.0077,3.0074,3.012,3.0118,3.0117,3.0116,0,0,0,0,0,0,0,3.0291,3.0284,3.0211,3.0231,3.023,3.0231,3.0226,3.0186,3.0173,3.0205,3.0206,3.02,3.0155,3.0141,3.0136,3.0073,3.012,3.0117,3.0115,3.0113,2.9967,2.9965,0,0,0,0,0,0,3.0296,3.0286,3.0213,3.021,3.0263,3.0228,3.0222,3.0204,3.0173,3.017,3.0199,3.0201,3.0146,3.014,3.0134,3.007,3.0117,3.0113,3.0111,2.9968,2.9966,2.9965,0,0,0,0,0,0,3.0298,3.0289,3.0215,3.0248,3.0239,3.0224,3.0204,3.0203,3.0189,3.0169,3.0166,3.0187,3.0147,3.0139,3.0093,3.0068,3.0111,3.0108,2.997,2.9968,2.9966,2.9942,0,0,0,0,0,0,3.03,3.029,3.0271,3.0248,3.0237,3.0177,3.0203,3.0201,3.0183,3.0185,3.0157,3.0154,3.0148,3.0099,3.009,3.0064,3.0105,2.9973,2.9969,2.9966,2.9945,2.9939,2.9934,0,0,0,0,0,3.0304,3.0265,3.027,3.0261,3.0214,3.0176,3.0169,3.0165,3.0181,3.0161,3.0148,3.0155,3.0073,3.0094,3.0084,3.0056,2.9974,2.997,2.9967,2.9947,2.994,2.9934,0,0,0,0,0,0,3.0283,3.0262,3.0267,3.022,3.02,3.0178,3.0153,3.0158,3.0131,3.0134,3.0128,3.0121,3.0074,3.0061,3.0085,3.0004,3.0025,3.0019,3.0014,3.0007,3.0002,3.0006,3.0102,0,0,0,0,0,3.0273,3.0246,3.0228,3.0188,3.0178,3.0167,3.015,3.0149,3.0127,3.0118,3.0102,3.0078,3.0047,3.0027,2.9997,2.9943,2.9937,2.992,2.9914,2.991,2.9904,2.9874,2.9866,2.9952,2.9952,2.9952,0,0,3.0252,3.0237,3.022,3.0183,3.0168,3.0138,3.016,3.0127,3.0104,3.0112,3.0068,3.0056,3.0029,2.9979,2.9956,2.9966,2.9879,2.9905,2.9902,2.9898,2.9869,2.9861,2.9854,2.995,2.995,2.9951,0,0,3.0198,3.0184,3.0149,3.0134,3.0111,3.0104,3.0095,3.0073,3.0065,3.0022,3.0028,2.9999,2.9946,2.9927,2.991,2.985,2.9854,2.984,2.9811,2.9781,2.9775,2.9769,2.9746,2.9738,2.9835,2.9835,2.9835,0,3.0173,3.0131,3.013,3.0097,3.0081,3.0089,3.0053,3.0037,3.0004,2.9991,3.0004,2.9938,2.992,2.9866,2.9851,2.9838,2.9827,2.9843,2.9776,2.977,2.9764,2.9743,2.9734,2.9833,2.9833,2.9833,2.9834,0,3.0102,3.0072,3.0046,3.0017,2.9997,2.9963,2.9955,2.9935,2.9936,2.9927,2.9882,2.9862,2.9828,2.9815,2.9815,2.976,2.9767,2.9778,2.9799,2.9755,2.9734,2.9726,2.9831,2.9831,2.9832,2.9832,0,0,3.0031,3.0004,2.9994,2.9981,2.9957,2.9932,2.9897,2.9867,2.9849,2.9827,2.9796,2.9752,2.9762,2.9743,2.974,2.9714,2.9667,2.9728,2.9727,2.9717,2.9605,2.9596,2.9587,2.967,2.9669,2.9667,2.9607,0,2.9974,2.9916,2.9915,2.986,2.9832,2.984,2.9809,2.979,2.9781,2.9754,2.9743,2.9711,2.9727,2.9716,2.9691,2.9678,2.9644,2.9682,2.964,2.9638,2.9646,2.9576,2.9567,2.9511,2.9599,2.9598,2.9597,0,2.99,2.9878,2.9821,2.9801,2.9789,2.9762,2.9734,2.9708,2.9686,2.9681,2.9661,2.9662,2.9624,2.9648,2.9595,2.9622,2.9604,2.9595,2.9592,2.9587,2.9614,2.9568,2.9493,2.9484,2.9584,2.9585,2.9586,0,2.9854,2.9809,2.9769,2.9758,2.9733,2.9714,2.9703,2.9682,2.9664,2.9638,2.9626,2.9596,2.9579,2.9555,2.9547,2.9566,2.9495,2.9518,2.9488,2.9488,2.9471,2.9472,2.9391,2.9462,2.9462,2.9462,2.9462,0,2.979,2.9754,2.9748,2.9724,2.9684,2.9682,2.9642,2.9632,2.9613,2.9585,2.959,2.9563,2.9555,2.9526,2.952,2.9477,2.9469,2.9463,2.9461,2.9462,2.9462,2.9449,2.9453,2.946,2.946,2.9461,2.9461,0,2.9731,2.9725,2.9683,2.9664,2.9658,2.963,2.9613,2.9588,2.958,2.9545,2.9536,2.9523,2.9489,2.948,2.9439,2.9435,2.9384,2.9386,2.9392,2.9392,2.9362,2.9364,2.9269,2.9255,2.9336,2.9335,2.9334,0,2.969,2.9663,2.9642,2.9625,2.9614,2.9586,2.9568,2.9565,2.9545,2.9518,2.9496,2.9464,2.9438,2.9384,2.9369,2.9337,2.9338,2.9307,2.9333,2.9335,2.9337,2.9338,2.9335,2.9302,2.9301,2.93,2.93,0,2.9617,2.9616,2.9592,2.9566,2.9545,2.9524,2.9504,2.9489,2.9483,2.946,2.9428,2.9408,2.9367,2.9334,2.9302,2.9288,2.9292,2.9292,2.9283,2.9283,2.9287,2.9283,2.9377,2.9293,2.9294,2.9295,2.9295,2.9295,2.9565,2.9542,2.9524,2.9496,2.9482,2.9463,2.9439,2.9429,2.9402,2.9371,2.937,2.9334,2.9311,2.927,2.9254,2.9224,2.9233,2.9221,2.9218,2.9214,2.9212,2.9293,2.9219,2.9219,2.9219,2.9219,2.9219,0,2.9493,2.9482,2.9457,2.943,2.9407,2.9416,2.9394,2.9374,2.9343,2.9323,2.9298,2.926,2.9228,2.9212,2.918,2.9159,2.916,2.915,2.9151,2.9148,2.9206,2.9216,2.915,2.915,2.915,2.915,2.915,2.915,2.9452,2.9413,2.941,2.9363,2.9352,2.9319,2.9306,2.9288,2.9272,2.923,2.9205,2.9195,2.9176,2.9143,2.9114,2.9109,2.9097,2.9086,2.9083,2.9137,2.9144,2.915,2.916,2.9084,2.9084,2.9027,2.9027,2.9027]}]]